Location: Boiro
(42.6475°N, 8.8834°W)
Time: 07:27:25
(UTC+01:00)

Transit 4A - Pass Details

Date: 26 September 2023
Orbit: 864 x 979 km, 66.8° (Epoch: 02 December)

Event Time Altitude Azimuth Distance (km) Brightness Sun altitude
Rises 00:09:44 0° 325° (NW) 3,673 11.9 -38.3°
Reaches altitude 10° 00:12:22 10° 321° (NW) 2,712 11.0 -38.6°
Enters shadow 00:16:02 34° 304° (NW) 1,518 9.3 -39.1°
